South Bend, IN

6:02 PM EDT on May 26, 2017 (GMT -0400)
South Bend Regional

Weather History for KSBN - October, 2012

Change the Weather History Date:

Monday, October 15, 2012

  Actual Average Record
Temperature  
Mean Temperature 45 °F 52 °F  
Max Temperature 53 °F 62 °F 89 °F (1897)
Min Temperature 36 °F 43 °F 25 °F (1909)
Degree Days  
Heating Degree Days 20 13  
Month to date heating degree days 212 160  
Since 1 July heating degree days 355 294  
Cooling Degree Days 0 0  
Month to date cooling degree days 2 8  
Year to date cooling degree days 1110 772  
Moisture  
Dew Point 42 °F    
Average Humidity 76    
Maximum Humidity 93    
Minimum Humidity 59    
Precipitation  
Precipitation 0.03 in 0.11 in 1.16 in (1967)
Month to date precipitation 2.08 1.65  
Year to date precipitation 28.69 30.45  
Snow  
Snow 0.00 in 0.00 in T in (2009)
Month to date snowfall 0.0 0.1  
Since 1 July snowfall 0.0 0.1  
Since 1 September snowfall 0.1  
Snow Depth 0.00 in    
Sea Level Pressure  
Sea Level Pressure 29.87 in    
Wind  
Wind Speed 8 mph (WNW)    
Max Wind Speed 18 mph    
Max Gust Speed 23 mph    
Visibility 10 miles    
Events Rain    
T = Trace of Precipitation, MM = Missing Value Source: NWS Daily Summary

Daily Weather History Graph

Daily Weather History Graph

Search for Another Location

Airport or City:

Trip Planner

Search our weather history database for the weather conditions in past years. The results will help you decide how hot, cold, wet, or windy it might be!

Date:

Astronomy

Oct. 15, 2012 Rise Set
Actual Time 7:58 AM EDT 7:03 PM EDT
Civil Twilight 7:29 AM EDT 7:31 PM EDT
Nautical Twilight 6:57 AM EDT 8:03 PM EDT
Astronomical Twilight 6:25 AM EDT 8:35 PM EDT
Moon 8:08 AM EDT (10/15) 7:01 PM EDT (10/15)
Length of Visible Light 12h 01m
Length of Day
11h 05m
New Moon, 0% of the Moon is Illuminated
Oct 15
New Moon
Oct 21
First Quarter
Oct 29
Full
Nov 6
Last Quarter
Nov 13
New

Hourly Weather History & Observations

Time (EDT) Temp. Dew Point Humidity Pressure Visibility Wind Dir Wind Speed Gust Speed Precip Events Conditions
12:54 AM 50.0 °F 46.4 °F 87% 29.74 in 10.0 mi West 10.4 mph - N/A   Overcast
1:54 AM 50.0 °F 46.0 °F 86% 29.75 in 10.0 mi WNW 13.8 mph - N/A   Overcast
2:17 AM 50.0 °F 46.4 °F 87% 29.76 in 10.0 mi West 9.2 mph - N/A   Overcast
2:54 AM 50.0 °F 46.0 °F 86% 29.76 in 10.0 mi West 9.2 mph - N/A   Overcast
3:54 AM 48.9 °F 46.0 °F 90% 29.76 in 6.0 mi West 10.4 mph 19.6 mph 0.00 in Rain Light Rain
4:08 AM 48.2 °F 46.4 °F 93% 29.76 in 4.0 mi West 10.4 mph - 0.00 in Rain Light Rain
4:32 AM 48.2 °F 46.4 °F 93% 29.77 in 4.0 mi West 10.4 mph - 0.01 in Rain Light Rain
4:54 AM 48.0 °F 46.0 °F 93% 29.77 in 7.0 mi West 10.4 mph - 0.01 in Rain Light Rain
5:30 AM 48.2 °F 46.4 °F 93% 29.77 in 10.0 mi West 6.9 mph - 0.01 in   Overcast
5:54 AM 48.9 °F 46.0 °F 90% 29.78 in 10.0 mi West 8.1 mph - 0.01 in Rain Light Rain
6:54 AM 48.9 °F 46.0 °F 90% 29.80 in 10.0 mi West 6.9 mph - 0.01 in   Overcast
7:30 AM 48.2 °F 44.6 °F 87% 29.80 in 10.0 mi WNW 9.2 mph - N/A   Overcast
7:54 AM 48.9 °F 43.0 °F 80% 29.82 in 10.0 mi WNW 6.9 mph - N/A   Overcast
8:54 AM 48.9 °F 42.1 °F 77% 29.84 in 10.0 mi NW 12.7 mph - N/A   Overcast
9:16 AM 48.2 °F 42.8 °F 82% 29.84 in 10.0 mi NW 8.1 mph - N/A   Overcast
9:54 AM 48.9 °F 42.1 °F 77% 29.87 in 10.0 mi WNW 6.9 mph - N/A   Overcast
10:54 AM 48.9 °F 42.1 °F 77% 29.88 in 10.0 mi WNW 11.5 mph - N/A   Overcast
11:54 AM 48.9 °F 41.0 °F 74% 29.91 in 10.0 mi WNW 11.5 mph - N/A   Overcast
12:54 PM 50.0 °F 41.0 °F 71% 29.91 in 10.0 mi WNW 10.4 mph - N/A   Overcast
1:54 PM 50.0 °F 42.1 °F 74% 29.93 in 10.0 mi WNW 9.2 mph - N/A   Overcast
2:36 PM 50.0 °F 41.0 °F 71% 29.92 in 10.0 mi WNW 9.2 mph 20.7 mph N/A   Overcast
2:54 PM 50.0 °F 39.9 °F 68% 29.93 in 10.0 mi WNW 15.0 mph - N/A   Overcast
3:54 PM 53.1 °F 39.9 °F 61% 29.94 in 10.0 mi NW 16.1 mph 23.0 mph N/A   Overcast
4:54 PM 52.0 °F 37.9 °F 59% 29.95 in 10.0 mi NW 13.8 mph - N/A   Mostly Cloudy
5:54 PM 51.1 °F 37.0 °F 59% 29.96 in 10.0 mi NW 9.2 mph - N/A   Partly Cloudy
6:54 PM 46.9 °F 37.0 °F 68% 29.97 in 10.0 mi NNW 6.9 mph - N/A   Clear
7:54 PM 42.1 °F 35.1 °F 76% 29.97 in 10.0 mi Calm Calm - N/A   Clear
8:54 PM 41.0 °F 36.0 °F 82% 29.99 in 10.0 mi Calm Calm - N/A   Clear
9:54 PM 39.9 °F 36.0 °F 86% 29.99 in 10.0 mi Calm Calm - N/A   Clear
10:54 PM 39.0 °F 36.0 °F 89% 30.00 in 10.0 mi Calm Calm - N/A   Clear
11:54 PM 37.0 °F 34.0 °F 89% 30.00 in 10.0 mi Calm Calm - N/A   Clear